Time,TemperatureF,DewpointF,PressureIn,WindDirection,WindDirectionDegrees,WindSpeedMPH,WindSpeedGustMPH,Humidity,HourlyPrecipIn,Conditions,Clouds,dailyrainin,SoftwareType,DateUTC
2013-01-03 00:03:00,17.0,10.0,30.25,SSW,209,4.0,10.0,74,0.00,,,0.00,,2013-01-03 05:03:00,
2013-01-03 00:12:00,17.0,10.0,30.25,SSW,209,4.0,10.0,74,0.00,,,0.00,,2013-01-03 05:12:00,
2013-01-03 00:22:00,17.0,10.0,30.25,SSW,211,5.0,12.0,74,0.00,,,0.00,,2013-01-03 05:22:00,
2013-01-03 00:33:00,17.0,10.0,30.25,SW,219,4.0,7.0,75,0.00,,,0.00,,2013-01-03 05:33:00,
2013-01-03 00:42:00,17.0,10.0,30.25,SW,219,4.0,7.0,75,0.00,,,0.00,,2013-01-03 05:42:00,
2013-01-03 00:52:00,17.0,10.0,30.24,SSW,205,3.0,9.0,74,0.00,,,0.00,,2013-01-03 05:52:00,
2013-01-03 01:02:00,17.0,10.0,30.24,SSW,201,5.0,10.0,73,0.00,,,0.00,,2013-01-03 06:02:00,
2013-01-03 01:12:00,17.0,10.0,30.24,SSW,201,5.0,10.0,73,0.00,,,0.00,,2013-01-03 06:12:00,
2013-01-03 01:22:00,17.0,10.0,30.24,SW,223,5.0,9.0,73,0.00,,,0.00,,2013-01-03 06:22:00,
2013-01-03 01:32:00,17.0,10.0,30.23,SSW,196,5.0,8.0,74,0.00,,,0.00,,2013-01-03 06:32:00,
2013-01-03 01:42:00,17.0,10.0,30.23,SSW,196,5.0,8.0,74,0.00,,,0.00,,2013-01-03 06:42:00,
2013-01-03 01:52:00,17.0,10.0,30.23,WSW,243,5.0,9.0,74,0.00,,,0.00,,2013-01-03 06:52:00,
2013-01-03 02:02:00,17.0,10.0,30.23,SSW,205,4.0,10.0,74,0.00,,,0.00,,2013-01-03 07:02:00,
2013-01-03 02:12:00,17.0,10.0,30.23,SSW,205,4.0,10.0,74,0.00,,,0.00,,2013-01-03 07:12:00,
2013-01-03 02:22:00,17.0,10.0,30.22,SSW,201,5.0,8.0,75,0.00,,,0.00,,2013-01-03 07:22:00,
2013-01-03 02:33:00,17.0,11.0,30.22,SSW,202,6.0,11.0,76,0.00,,,0.00,,2013-01-03 07:33:00,
2013-01-03 02:42:00,17.0,11.0,30.22,SSW,202,6.0,11.0,76,0.00,,,0.00,,2013-01-03 07:42:00,
2013-01-03 02:52:00,17.0,11.0,30.22,SSW,198,5.0,12.0,76,0.00,,,0.00,,2013-01-03 07:52:00,
2013-01-03 03:02:00,17.0,11.0,30.23,SSW,197,5.0,11.0,76,0.00,,,0.00,,2013-01-03 08:02:00,
2013-01-03 03:12:00,17.0,11.0,30.23,SSW,197,5.0,11.0,76,0.00,,,0.00,,2013-01-03 08:12:00,
2013-01-03 03:22:00,17.0,11.0,30.23,SSW,202,5.0,11.0,77,0.00,,,0.00,,2013-01-03 08:22:00,
2013-01-03 03:32:00,17.0,11.0,30.23,SSW,196,5.0,9.0,77,0.00,,,0.00,,2013-01-03 08:32:00,
2013-01-03 03:42:00,17.0,11.0,30.23,SSW,196,5.0,9.0,77,0.00,,,0.00,,2013-01-03 08:42:00,
2013-01-03 03:53:00,17.0,11.0,30.23,SSW,213,4.0,8.0,78,0.00,,,0.00,,2013-01-03 08:53:00,
2013-01-03 04:02:00,18.0,12.0,30.23,SSW,192,2.0,7.0,78,0.00,,,0.00,,2013-01-03 09:02:00,
2013-01-03 04:12:00,18.0,12.0,30.23,SSW,192,2.0,7.0,78,0.00,,,0.00,,2013-01-03 09:12:00,
2013-01-03 04:22:00,18.0,12.0,30.22,WSW,240,4.0,7.0,78,0.00,,,0.00,,2013-01-03 09:22:00,
2013-01-03 04:33:00,18.0,12.0,30.22,SSW,209,4.0,7.0,78,0.00,,,0.00,,2013-01-03 09:33:00,
2013-01-03 04:43:00,18.0,12.0,30.22,SSW,209,4.0,7.0,78,0.00,,,0.00,,2013-01-03 09:43:00,
2013-01-03 04:52:00,18.0,13.0,30.23,SSW,210,2.0,7.0,79,0.00,,,0.00,,2013-01-03 09:52:00,
2013-01-03 05:02:00,19.0,14.0,30.23,SW,224,3.0,7.0,80,0.00,,,0.00,,2013-01-03 10:02:00,
2013-01-03 05:12:00,19.0,14.0,30.23,SW,224,3.0,7.0,80,0.00,,,0.00,,2013-01-03 10:12:00,
2013-01-03 05:22:00,19.0,14.0,30.23,SSW,210,3.0,6.0,80,0.00,,,0.00,,2013-01-03 10:22:00,
2013-01-03 05:33:00,19.0,14.0,30.23,SSW,197,2.0,6.0,81,0.00,,,0.00,,2013-01-03 10:33:00,
2013-01-03 05:42:00,19.0,14.0,30.23,SSW,197,2.0,6.0,81,0.00,,,0.00,,2013-01-03 10:42:00,
2013-01-03 05:52:00,19.0,14.0,30.23,SW,234,2.0,6.0,82,0.00,,,0.00,,2013-01-03 10:52:00,
2013-01-03 06:02:00,19.0,14.0,30.23,SW,227,3.0,5.0,82,0.00,,,0.00,,2013-01-03 11:02:00,
2013-01-03 06:12:00,19.0,14.0,30.23,SW,227,3.0,5.0,82,0.00,,,0.00,,2013-01-03 11:12:00,
2013-01-03 06:22:00,19.0,15.0,30.23,WSW,256,2.0,5.0,83,0.00,,,0.00,,2013-01-03 11:22:00,
2013-01-03 06:33:00,20.0,16.0,30.23,SW,222,2.0,6.0,85,0.00,,,0.00,,2013-01-03 11:33:00,
2013-01-03 06:43:00,20.0,16.0,30.23,SW,222,2.0,6.0,85,0.00,,,0.00,,2013-01-03 11:43:00,
2013-01-03 06:53:00,21.0,17.0,30.23,WSW,238,3.0,7.0,85,0.00,,,0.00,,2013-01-03 11:53:00,
2013-01-03 07:03:00,22.0,18.0,30.24,SW,227,2.0,6.0,84,0.00,,,0.00,,2013-01-03 12:03:00,
2013-01-03 07:12:00,22.0,18.0,30.24,SW,227,2.0,6.0,84,0.00,,,0.00,,2013-01-03 12:12:00,
2013-01-03 07:22:00,21.0,17.0,30.23,SW,226,2.0,5.0,84,0.00,,,0.00,,2013-01-03 12:22:00,
2013-01-03 07:32:00,21.0,17.0,30.24,SW,221,1.0,5.0,84,0.00,,,0.00,,2013-01-03 12:32:00,
2013-01-03 07:42:00,21.0,17.0,30.24,SW,221,1.0,5.0,84,0.00,,,0.00,,2013-01-03 12:42:00,
2013-01-03 07:52:00,21.0,17.0,30.24,SSW,207,2.0,5.0,86,0.00,,,0.00,,2013-01-03 12:52:00,
2013-01-03 08:02:00,21.0,17.0,30.23,WSW,240,2.0,5.0,85,0.00,,,0.00,,2013-01-03 13:02:00,
2013-01-03 08:13:00,21.0,17.0,30.23,WSW,240,2.0,5.0,85,0.00,,,0.00,,2013-01-03 13:13:00,
2013-01-03 08:22:00,21.0,17.0,30.24,SSW,198,0.0,3.0,86,0.00,,,0.00,,2013-01-03 13:22:00,
2013-01-03 08:33:00,21.0,18.0,30.24,WSW,246,0.0,5.0,87,0.00,,,0.00,,2013-01-03 13:33:00,
2013-01-03 08:42:00,21.0,18.0,30.24,WSW,246,0.0,5.0,87,0.00,,,0.00,,2013-01-03 13:42:00,
2013-01-03 08:52:00,21.0,18.0,30.24,SW,234,1.0,4.0,87,0.00,,,0.00,,2013-01-03 13:52:00,
2013-01-03 09:03:00,20.0,17.0,30.24,SW,227,1.0,3.0,87,0.00,,,0.00,,2013-01-03 14:03:00,
2013-01-03 09:12:00,20.0,17.0,30.24,SW,227,1.0,3.0,87,0.00,,,0.00,,2013-01-03 14:12:00,
2013-01-03 09:22:00,20.0,17.0,30.24,SW,227,1.0,3.0,87,0.00,,,0.00,,2013-01-03 14:22:00,
2013-01-03 09:33:00,22.0,19.0,30.25,SW,236,3.0,7.0,89,0.00,,,0.00,,2013-01-03 14:33:00,
2013-01-03 09:43:00,22.0,19.0,30.25,SW,236,3.0,7.0,89,0.00,,,0.00,,2013-01-03 14:43:00,
2013-01-03 09:53:00,23.0,20.0,30.25,WSW,242,3.0,7.0,88,0.00,,,0.00,,2013-01-03 14:53:00,
2013-01-03 10:03:00,23.0,20.0,30.26,WSW,238,3.0,8.0,88,0.00,,,0.00,,2013-01-03 15:03:00,
2013-01-03 10:12:00,23.0,20.0,30.26,WSW,238,3.0,8.0,88,0.00,,,0.00,,2013-01-03 15:12:00,
2013-01-03 10:22:00,24.0,21.0,30.26,WSW,254,4.0,8.0,88,0.00,,,0.00,,2013-01-03 15:22:00,
2013-01-03 10:33:00,24.0,21.0,30.27,West,279,5.0,10.0,88,0.00,,,0.00,,2013-01-03 15:33:00,
2013-01-03 10:43:00,24.0,21.0,30.27,West,279,5.0,10.0,88,0.00,,,0.00,,2013-01-03 15:43:00,
2013-01-03 10:53:00,25.0,22.0,30.27,WNW,284,4.0,10.0,89,0.00,,,0.00,,2013-01-03 15:53:00,
2013-01-03 11:03:00,26.0,23.0,30.27,West,272,6.0,10.0,89,0.00,,,0.00,,2013-01-03 16:03:00,
2013-01-03 11:12:00,26.0,23.0,30.27,West,272,6.0,10.0,89,0.00,,,0.00,,2013-01-03 16:12:00,
2013-01-03 11:22:00,26.0,23.0,30.28,WSW,248,3.0,7.0,88,0.00,,,0.00,,2013-01-03 16:22:00,
2013-01-03 11:33:00,26.0,23.0,30.28,WSW,248,3.0,7.0,88,0.00,,,0.00,,2013-01-03 16:33:00,
2013-01-03 11:43:00,26.0,23.0,30.28,WSW,248,3.0,7.0,88,0.00,,,0.00,,2013-01-03 16:43:00,
2013-01-03 11:52:00,28.0,25.0,30.28,WNW,284,9.0,13.0,87,0.00,,,0.00,,2013-01-03 16:52:00,
2013-01-03 12:03:00,28.0,25.0,30.29,WNW,282,8.0,13.0,88,0.00,,,0.00,,2013-01-03 17:03:00,
2013-01-03 12:12:00,28.0,25.0,30.29,WNW,282,8.0,13.0,88,0.00,,,0.00,,2013-01-03 17:12:00,
2013-01-03 12:23:00,28.0,25.0,30.28,West,268,9.0,15.0,88,0.00,,,0.00,,2013-01-03 17:23:00,
2013-01-03 12:33:00,29.0,26.0,30.28,West,278,7.0,13.0,89,0.00,,,0.00,,2013-01-03 17:33:00,
2013-01-03 12:43:00,29.0,26.0,30.28,West,278,7.0,13.0,89,0.00,,,0.00,,2013-01-03 17:43:00,
2013-01-03 12:52:00,29.0,26.0,30.27,West,274,9.0,14.0,88,0.00,,,0.00,,2013-01-03 17:52:00,
2013-01-03 13:03:00,29.0,26.0,30.27,West,267,8.0,13.0,89,0.00,,,0.00,,2013-01-03 18:03:00,
2013-01-03 13:13:00,29.0,26.0,30.27,West,267,8.0,13.0,89,0.00,,,0.00,,2013-01-03 18:13:00,
2013-01-03 13:22:00,29.0,26.0,30.27,West,267,8.0,13.0,89,0.00,,,0.00,,2013-01-03 18:22:00,
2013-01-03 13:33:00,30.0,27.0,30.27,West,269,9.0,16.0,88,0.00,,,0.00,,2013-01-03 18:33:00,
2013-01-03 13:43:00,30.0,27.0,30.27,West,269,9.0,16.0,88,0.00,,,0.00,,2013-01-03 18:43:00,
2013-01-03 13:53:00,30.0,27.0,30.26,WNW,288,8.0,15.0,88,0.00,,,0.00,,2013-01-03 18:53:00,
2013-01-03 14:03:00,30.0,27.0,30.26,West,281,10.0,16.0,87,0.00,,,0.00,,2013-01-03 19:03:00,
2013-01-03 14:12:00,30.0,27.0,30.26,West,281,10.0,16.0,87,0.00,,,0.00,,2013-01-03 19:12:00,
2013-01-03 14:52:00,31.0,28.0,30.26,WSW,248,10.0,15.0,87,0.00,,,0.00,,2013-01-03 19:52:00,
2013-01-03 15:03:00,31.0,27.0,30.26,WSW,252,9.0,16.0,86,0.00,,,0.00,,2013-01-03 20:03:00,
2013-01-03 15:12:00,31.0,27.0,30.26,WSW,252,9.0,16.0,86,0.00,,,0.00,,2013-01-03 20:12:00,
2013-01-03 15:22:00,31.0,27.0,30.27,West,260,10.0,18.0,86,0.00,,,0.00,,2013-01-03 20:22:00,
2013-01-03 15:33:00,30.0,26.0,30.27,West,280,11.0,16.0,85,0.00,,,0.00,,2013-01-03 20:33:00,
2013-01-03 15:42:00,30.0,26.0,30.27,West,280,11.0,16.0,85,0.00,,,0.00,,2013-01-03 20:42:00,
2013-01-03 15:53:00,30.0,26.0,30.27,West,262,10.0,14.0,86,0.00,,,0.00,,2013-01-03 20:53:00,
2013-01-03 16:02:00,30.0,26.0,30.27,West,262,10.0,14.0,86,0.00,,,0.00,,2013-01-03 21:02:00,
2013-01-03 16:12:00,30.0,26.0,30.27,West,262,10.0,14.0,86,0.00,,,0.00,,2013-01-03 21:12:00,
2013-01-03 16:22:00,30.0,26.0,30.29,WNW,292,9.0,15.0,86,0.00,,,0.00,,2013-01-03 21:22:00,
2013-01-03 16:36:00,29.0,25.0,30.28,West,277,11.0,15.0,86,0.00,,,0.00,,2013-01-03 21:36:00,
2013-01-03 16:48:00,29.0,25.0,30.28,West,277,11.0,15.0,86,0.00,,,0.00,,2013-01-03 21:48:00,
2013-01-03 17:03:00,29.0,26.0,30.29,West,280,7.0,14.0,87,0.00,,,0.00,,2013-01-03 22:03:00,
2013-01-03 17:12:00,29.0,26.0,30.29,West,280,7.0,14.0,87,0.00,,,0.00,,2013-01-03 22:12:00,
2013-01-03 17:22:00,29.0,25.0,30.29,West,279,8.0,14.0,85,0.00,,,0.00,,2013-01-03 22:22:00,
2013-01-03 17:33:00,29.0,25.0,30.30,West,265,9.0,15.0,86,0.00,,,0.00,,2013-01-03 22:33:00,
2013-01-03 17:42:00,29.0,25.0,30.30,West,265,9.0,15.0,86,0.00,,,0.00,,2013-01-03 22:42:00,
2013-01-03 17:52:00,29.0,25.0,30.30,West,267,8.0,12.0,86,0.00,,,0.00,,2013-01-03 22:52:00,
2013-01-03 18:02:00,28.0,24.0,30.30,West,272,10.0,16.0,84,0.00,,,0.00,,2013-01-03 23:02:00,
2013-01-03 18:12:00,28.0,24.0,30.30,West,272,10.0,16.0,84,0.00,,,0.00,,2013-01-03 23:12:00,
2013-01-03 18:22:00,28.0,24.0,30.30,West,272,10.0,16.0,84,0.00,,,0.00,,2013-01-03 23:22:00,
2013-01-03 18:33:00,26.0,21.0,30.31,West,281,9.0,14.0,82,0.00,,,0.00,,2013-01-03 23:33:00,
2013-01-03 18:43:00,26.0,21.0,30.31,West,281,9.0,14.0,82,0.00,,,0.00,,2013-01-03 23:43:00,
2013-01-03 18:53:00,25.0,21.0,30.31,West,275,8.0,13.0,83,0.00,,,0.00,,2013-01-03 23:53:00,
2013-01-03 19:03:00,24.0,20.0,30.32,West,279,8.0,11.0,83,0.00,,,0.00,,2013-01-04 00:03:00,
2013-01-03 19:12:00,24.0,20.0,30.32,West,279,8.0,11.0,83,0.00,,,0.00,,2013-01-04 00:12:00,
2013-01-03 19:22:00,24.0,20.0,30.32,West,277,9.0,12.0,83,0.00,,,0.00,,2013-01-04 00:22:00,
2013-01-03 19:32:00,23.0,19.0,30.33,WNW,286,7.0,12.0,84,0.00,,,0.00,,2013-01-04 00:32:00,
2013-01-03 19:42:00,23.0,19.0,30.33,WNW,286,7.0,12.0,84,0.00,,,0.00,,2013-01-04 00:42:00,
2013-01-03 19:52:00,22.0,18.0,30.33,West,275,5.0,8.0,85,0.00,,,0.00,,2013-01-04 00:52:00,
2013-01-03 20:02:00,21.0,17.0,30.34,WNW,284,3.0,7.0,85,0.00,,,0.00,,2013-01-04 01:02:00,
2013-01-03 20:12:00,21.0,17.0,30.34,WNW,284,3.0,7.0,85,0.00,,,0.00,,2013-01-04 01:12:00,
2013-01-03 20:22:00,19.0,16.0,30.34,WNW,290,3.0,4.0,86,0.00,,,0.00,,2013-01-04 01:22:00,
2013-01-03 20:32:00,19.0,16.0,30.35,West,274,4.0,7.0,88,0.00,,,0.00,,2013-01-04 01:32:00,
2013-01-03 20:42:00,19.0,16.0,30.35,West,274,4.0,7.0,88,0.00,,,0.00,,2013-01-04 01:42:00,
2013-01-03 20:52:00,18.0,15.0,30.35,WNW,291,2.0,5.0,86,0.00,,,0.00,,2013-01-04 01:52:00,
2013-01-03 21:02:00,16.0,13.0,30.35,WNW,294,2.0,4.0,88,0.00,,,0.00,,2013-01-04 02:02:00,
2013-01-03 21:12:00,16.0,13.0,30.35,WNW,294,2.0,4.0,88,0.00,,,0.00,,2013-01-04 02:12:00,
2013-01-03 21:22:00,16.0,13.0,30.35,WNW,288,4.0,6.0,89,0.00,,,0.00,,2013-01-04 02:22:00,
2013-01-03 21:32:00,17.0,15.0,30.35,West,275,3.0,6.0,90,0.00,,,0.00,,2013-01-04 02:32:00,
2013-01-03 21:42:00,17.0,15.0,30.35,West,275,3.0,6.0,90,0.00,,,0.00,,2013-01-04 02:42:00,
2013-01-03 21:52:00,17.0,15.0,30.35,West,275,3.0,6.0,90,0.00,,,0.00,,2013-01-04 02:52:00,
2013-01-03 22:02:00,18.0,15.0,30.35,West,261,3.0,6.0,88,0.00,,,0.00,,2013-01-04 03:02:00,
2013-01-03 22:12:00,18.0,15.0,30.35,West,261,3.0,6.0,88,0.00,,,0.00,,2013-01-04 03:12:00,
2013-01-03 22:22:00,18.0,15.0,30.36,West,261,2.0,6.0,88,0.00,,,0.00,,2013-01-04 03:22:00,
2013-01-03 22:32:00,17.0,14.0,30.35,West,270,3.0,5.0,88,0.00,,,0.00,,2013-01-04 03:32:00,
2013-01-03 22:42:00,17.0,14.0,30.35,West,270,3.0,5.0,88,0.00,,,0.00,,2013-01-04 03:42:00,
2013-01-03 22:52:00,16.0,13.0,30.35,West,273,2.0,4.0,88,0.00,,,0.00,,2013-01-04 03:52:00,
2013-01-03 23:02:00,15.0,12.0,30.36,WSW,250,2.0,4.0,89,0.00,,,0.00,,2013-01-04 04:02:00,
2013-01-03 23:12:00,15.0,12.0,30.36,WSW,250,2.0,4.0,89,0.00,,,0.00,,2013-01-04 04:12:00,
2013-01-03 23:22:00,15.0,12.0,30.36,West,273,3.0,7.0,88,0.00,,,0.00,,2013-01-04 04:22:00,
2013-01-03 23:32:00,15.0,12.0,30.36,West,275,5.0,7.0,89,0.00,,,0.00,,2013-01-04 04:32:00,
2013-01-03 23:42:00,15.0,12.0,30.36,West,275,5.0,7.0,89,0.00,,,0.00,,2013-01-04 04:42:00,
2013-01-03 23:52:00,15.0,12.0,30.36,West,273,4.0,7.0,89,0.00,,,0.00,,2013-01-04 04:52:00,